Regional Weather Roundup
Issued by NWS Albany, NY

Current Version | Previous Version | Text Only | Print | Product List | Glossary On
Versions: 1 2 3 4 5 6 7 8 9 10 11 12 13 14 15 16 17 18 19 20 21 22 23 24 25 26 27 28 29 30 31 32 33 34 35 36 37 38 39 40 41 42 43 44 45 46 47 48 49 50
000 ASUS41 KALY 022110 RWRALY NEW YORK STATE HOURLY WEATHER ROUNDUP NATIONAL WEATHER SERVICE ALBANY NY 500 PM EDT TUE SEP 02 2014 NOTE: "FAIR" INDICATES FEW OR NO CLOUDS BELOW 12,000 FEET WITH NO SIGNIFICANT WEATHER AND/OR NO OBSTRUCTIONS TO VISIBILITY. NYZ032-033-038>043-046>054-057>066-NYZ062>081-022200- EAST CITY SKY/WX TMP DP RH WIND PRES REMARKS ALBANY MOSUNNY 84 66 54 S7 29.78F GLENS FALLS MOSUNNY 84 70 62 S9 29.76F POUGHKEEPSIE MOSUNNY 91 68 46 SW10 29.78F HX 95 NEWBURGH MOSUNNY 90 72 55 SW14 29.83F HX 96 MONTGOMERY MOSUNNY 90 69 50 SW9 29.80F HX 94 WHITE PLAINS MOSUNNY 88 67 49 VRB7 29.82F HX 91 ISLIP PTSUNNY 86 71 60 SW14G22 29.82S HX 91 NEW YORK CITY PTSUNNY 91 67 44 SW14G22 29.80F HX 94 CENTRAL PARK MOSUNNY 91 65 41 MISG 29.84F HX 93 $$ NYZ005>009-017-018-044>046-055-056-022200- CENTRAL CITY SKY/WX TMP DP RH WIND PRES REMARKS FULTON HVY RAIN 70 67 90 W7 29.79R FOG SYRACUSE LGT RAIN 76 67 73 NW10 29.77R ROME PTSUNNY 84 68 58 SW8 29.76F ELMIRA CLOUDY 83 67 58 SW10 29.79F BINGHAMTON MOSUNNY 80 65 59 SW14 29.84F MONTICELLO MOSUNNY 84 63 48 W9 29.87F $$ NYZ026>034-041>043-022200- NORTH CITY SKY/WX TMP DP RH WIND PRES REMARKS WATERTOWN LGT RAIN 74 68 81 SW8 29.76S FORT DRUM NOT AVBL MASSENA CLOUDY 78 69 73 SW7 29.73F SARANAC LAKE PTSUNNY 78 62 57 W8 29.79F PLATTSBURGH MOSUNNY 81 71 71 S3 29.71F $$ NYZ001>004-010>016-019>021-022200- WEST CITY SKY/WX TMP DP RH WIND PRES REMARKS NIAGARA FALLS LGT RAIN 67 65 93 SW6 29.82R BUFFALO CLOUDY 71 65 81 W13 29.83R DUNKIRK CLOUDY 71 68 90 SW12 29.84F JAMESTOWN CLOUDY 66 63 88 W12 29.89R WELLSVILLE LGT RAIN 74 64 71 S6 29.87F ROCHESTER LGT RAIN 72 69 90 W10 29.81R PENN YAN CLOUDY 79 68 69 SW3 29.80F $$ KEY WCI = WIND CHILL INDEX VSB = VISIBILITY HX = HEAT INDEX $$

USA.gov is the U.S. government's official web portal to all federal, state and local government web resources and services.